Temp
-11 -10 -10 -10 -10 -10 -10 -10 -10 -10 -10 -10 -10 -10 -9 -10 -10 -10 -10 -10 -10 -10 -10 -10 -10 -11 -10 -10 -10 -10 -10 -8 -8 -10 -9 -9 -11 -10 -11 -10 -10 -10 -10 -10 -10
-10 -10 -10 -10 -11 -10 -10 -10 -10 -10 -10 -9 -9 -9 -10 -10 -10 -10 -10 -11 -11 -11 -10 -10 -10 -10 -10 -10 -10 -10 -9 -8 -9 -10 -10 -10 -10 -11 -10 -10 -10 -10 -10 -10 -11
-10 -10 -10 -10 -10 -10 -11 -10 -10 -10 -10 -10 -10 -9 -9 -9 -9 -9 -9 -10 -11 -11 -12 -11 -11 -11 -11 -11 -11 -10 -8 -9 -9 -10 -10 -10 -10 -10 -10 -11 -10 -10 -11 -10 -10
-11 -10 -10 -10 -10 -10 -10 -10 -10 -11 -10 -10 -10 -10 -10 -10 -10 -9 -9 -10 -10 -11 -11 -12 -11 -11 -11 -11 -11 -11 -10 -10 -10 -10 -10 -10 -10 -10 -11 -10 -11 -11 -10 -11 -10
-11 -11 -11 -11 -11 -10 -10 -10 -11 -11 -11 -10 -10 -10 -11 -11 -10 -10 -10 -9 -10 -10 -11 -11 -12 -12 -11 -12 -12 -11 -10 -11 -11 -11 -11 -10 -10 -10 -10 -10 -11 -11 -11 -11 -9
-11 -11 -11 -11 -11 -11 -11 -11 -10 -10 -10 -10 -11 -11 -10 -10 -10 -11 -10 -10 -10 -11 -10 -11 -11 -12 -12 -12 -12 -11 -12 -12 -12 -12 -11 -12 -12 -11 -9 -11 -10 -10 -10 -9 -10
-11 -11 -11 -11 -11 -11 -11 -11 -11 -11 -10 -10 -10 -10 -10 -10 -10 -10 -10 -10 -11 -10 -11 -10 -11 -12 -11 -11 -12 -12 -12 -12 -10 -11 -11 -11 -11 -9 -9 -10 -10 -10 -10 -10 -10
-12 -12 -11 -11 -11 -11 -11 -11 -11 -11 -10 -10 -10 -10 -10 -10 -10 -10 -10 -10 -11 -10 -10 -11 -12 -11 -11 -11 -12 -12 -13 -11 -9 -11 -8 -12 -11 -8 -10 -10 -11 -10 -10 -10 -10
-12 -12 -12 -12 -11 -11 -11 -11 -11 -11 -11 -11 -10 -10 -10 -10 -10 -10 -10 -10 -10 -11 -10 -10 -12 -12 -12 -12 -12 -11 -11 -9 -8 -9 -11 -13 -12 -8 -10 -12 -12 -11 -10 -10 -10
-12 -12 -12 -11 -11 -11 -11 -11 -11 -11 -11 -11 -11 -10 -10 -10 -10 -10 -10 -10 -10 -10 -11 -11 -11 -11 -12 -11 -10 -9 -10 -8 -9 -10 -11 -12 -12 -8 -10 -12 -11 -11 -10 -10 -10
-12 -11 -11 -11 -10 -10 -10 -10 -10 -10 -10 -10 -10 -10 -10 -10 -10 -10 -10 -10 -10 -10 -10 -11 -11 -10 -9 -10 -10 -11 -10 -10 -10 -10 -11 -13 -12 -9 -10 -12 -11 -12 -9 -10 -10
-12 -11 -11 -10 -10 -10 -10 -10 -10 -10 -10 -10 -10 -10 -10 -11 -10 -10 -10 -10 -10 -10 -10 -12 -10 -9 -10 -10 -11 -11 -11 -11 -10 -11 -11 -13 -12 -10 -9 -9 -11 -11 -10 -9 -9
-11 -10 -10 -10 -11 -12 -13 -15 -16 -15 -12 -12 -13 -12 -13 -13 -11 -11 -11 -11 -10 -10 -11 -11 -9 -12 -10 -10 -11 -10 -10 -10 -10 -11 -12 -13 -12 -9 -9 -10 -10 -9 -10 -9 -10
-11 -11 -12 -14 -17 -20 -22 -22 -22 -21 -18 -19 -19 -17 -16 -15 -14 -14 -13 -13 -12 -11 -12 -11 -10 -10 -11 -10 -11 -10 -10 -10 -10 -11 -11 -13 -10 -8 -9 -9 -9 -10 -9 -9 -9
-12 -14 -16 -21 -23 -24 -24 -24 -23 -22 -21 -23 -22 -22 -22 -20 -20 -19 -17 -16 -14 -13 -14 -9 -10 -11 -11 -9 -11 -9 -12 -11 -11 -12 -12 -11 -10 -6 -10 -9 -10 -10 -10 -9 -9
-15 -18 -21 -23 -23 -24 -25 -24 -24 -24 -23 -23 -23 -22 -22 -23 -22 -22 -21 -20 -18 -17 -15 -11 -12 -13 -10 -11 -13 -12 -11 -12 -12 -13 -14 -8 -10 -6 -8 -10 -9 -10 -9 -9 -9
-18 -21 -23 -23 -24 -25 -25 -25 -24 -23 -24 -24 -25 -24 -23 -24 -23 -22 -23 -22 -22 -21 -17 -13 -14 -12 -12 -11 -11 -12 -12 -12 -13 -13 -8 -9 -11 -7 -8 -10 -9 -9 -9 -9 -10
-20 -22 -23 -23 -24 -24 -25 -25 -24 -25 -25 -24 -24 -23 -23 -24 -24 -24 -23 -23 -23 -23 -21 -17 -16 -14 -11 -10 -11 -13 -12 -11 -10 -9 -8 -10 -9 -8 -10 -10 -9 -9 -9 -9 -10
-21 -22 -22 -23 -24 -24 -24 -24 -24 -25 -25 -24 -24 -24 -24 -23 -23 -24 -24 -23 -23 -22 -21 -20 -18 -15 -15 -13 -15 -13 -16 -10 -13 -13 -12 -10 -10 -10 -11 -10 -9 -9 -9 -10 -10
-21 -22 -22 -23 -24 -24 -24 -24 -25 -26 -25 -26 -25 -24 -24 -23 -23 -24 -24 -23 -23 -23 -22 -21 -19 -17 -15 -16 -13 -16 -13 -14 -13 -14 -13 -10 -11 -11 -11 -10 -9 -9 -10 -9 -11
-21 -22 -22 -23 -24 -24 -24 -24 -25 -25 -26 -26 -26 -25 -24 -24 -24 -23 -23 -23 -23 -23 -23 -22 -21 -19 -18 -17 -16 -15 -15 -14 -14 -13 -12 -12 -11 -11 -11 -11 -9 -10 -10 -10 -10
-22 -21 -22 -23 -23 -23 -24 -25 -25 -26 -26 -25 -26 -25 -24 -24 -24 -23 -24 -23 -22 -23 -23 -22 -21 -20 -19 -18 -18 -16 -14 -14 -15 -12 -13 -13 -11 -11 -10 -10 -10 -11 -10 -10 -11
-21 -22 -22 -22 -23 -23 -24 -24 -25 -25 -25 -25 -25 -25 -25 -24 -24 -24 -23 -22 -23 -23 -23 -22 -21 -20 -19 -19 -18 -18 -16 -15 -15 -15 -13 -12 -11 -12 -10 -11 -10 -12 -10 -11 -11
-21 -22 -23 -24 -23 -23 -23 -24 -24 -25 -25 -25 -25 -25 -25 -24 -24 -24 -23 -23 -23 -23 -22 -21 -21 -20 -19 -18 -19 -17 -17 -15 -16 -14 -13 -12 -12 -12 -12 -11 -11 -11 -11 -11 -11
-21 -22 -22 -22 -23 -23 -23 -23 -24 -24 -25 -25 -25 -24 -25 -24 -24 -24 -24 -23 -23 -22 -22 -21 -20 -20 -20 -17 -18 -17 -17 -16 -15 -14 -13 -12 -12 -13 -12 -11 -11 -11 -11 -11 -12
-21 -21 -22 -22 -22 -23 -23 -24 -24 -25 -25 -25 -24 -24 -24 -24 -24 -24 -23 -23 -23 -22 -22 -21 -21 -20 -20 -17 -17 -16 -16 -16 -15 -14 -13 -13 -12 -12 -12 -11 -11 -11 -11 -12 -12
-20 -21 -21 -21 -22 -23 -23 -23 -24 -24 -24 -25 -25 -24 -24 -24 -24 -24 -23 -23 -22 -22 -21 -21 -20 -20 -19 -19 -17 -16 -16 -16 -15 -14 -12 -13 -13 -12 -12 -12 -12 -12 -12 -12 -12
Height
5790 5791 5791 5791 5792 5792 5794 5796 5797 5798 5801 5802 5804 5807 5810 5813 5815 5816 5822 5827 5825 5827 5830 5832 5836 5838 5839 5841 5845 5845 5844 5844 5854 5856 5861 5863 5863 5863 5860 5859 5861 5860 5858 5861 5857
5785 5784 5783 5782 5782 5782 5783 5784 5786 5789 5790 5792 5794 5796 5798 5802 5804 5806 5815 5815 5817 5817 5819 5823 5827 5828 5829 5832 5834 5834 5835 5841 5847 5850 5852 5852 5855 5856 5856 5854 5852 5851 5854 5855 5850
5780 5779 5778 5777 5776 5775 5775 5775 5776 5778 5779 5780 5783 5785 5788 5790 5793 5796 5799 5803 5806 5808 5809 5812 5816 5818 5819 5823 5825 5827 5827 5835 5836 5841 5845 5845 5846 5849 5848 5848 5849 5848 5847 5848 5843
5774 5773 5771 5770 5769 5768 5767 5767 5767 5767 5768 5769 5772 5773 5775 5778 5781 5782 5786 5790 5795 5798 5800 5802 5805 5808 5809 5813 5818 5817 5821 5823 5829 5833 5835 5836 5839 5839 5840 5839 5842 5840 5840 5838 5838
5767 5765 5763 5762 5760 5759 5758 5758 5758 5757 5757 5758 5760 5761 5763 5766 5772 5769 5773 5777 5782 5786 5791 5793 5795 5798 5797 5804 5808 5807 5813 5817 5821 5822 5825 5829 5828 5828 5827 5832 5834 5832 5831 5830 5828
5760 5758 5756 5754 5752 5750 5747 5746 5745 5745 5746 5747 5747 5748 5750 5756 5759 5760 5757 5764 5771 5774 5776 5779 5784 5787 5790 5792 5794 5803 5803 5806 5809 5812 5815 5815 5815 5818 5820 5823 5823 5822 5820 5820 5818
5752 5749 5746 5744 5742 5739 5737 5736 5734 5733 5732 5732 5734 5735 5739 5747 5745 5746 5746 5753 5756 5761 5763 5767 5769 5769 5781 5779 5787 5788 5788 5792 5795 5801 5801 5811 5803 5806 5812 5814 5810 5809 5809 5807 5807
5743 5740 5737 5734 5731 5728 5725 5722 5721 5720 5719 5719 5720 5721 5726 5728 5729 5732 5735 5739 5743 5748 5752 5756 5756 5759 5763 5772 5772 5775 5777 5775 5788 5794 5800 5799 5788 5803 5807 5803 5799 5800 5799 5799 5800
5734 5731 5727 5723 5719 5715 5712 5708 5706 5704 5703 5704 5704 5706 5710 5713 5713 5717 5720 5724 5728 5732 5739 5743 5744 5749 5753 5756 5761 5764 5763 5771 5785 5792 5787 5788 5785 5797 5795 5793 5790 5790 5789 5791 5792
5724 5719 5714 5709 5705 5701 5695 5690 5688 5688 5687 5686 5685 5691 5690 5694 5697 5700 5703 5708 5714 5717 5723 5728 5729 5732 5739 5745 5744 5758 5765 5771 5769 5780 5780 5778 5777 5786 5786 5785 5784 5784 5782 5784 5785
5714 5708 5701 5694 5687 5681 5675 5670 5667 5665 5666 5667 5667 5672 5672 5673 5677 5683 5687 5692 5695 5700 5705 5708 5708 5723 5739 5742 5751 5754 5756 5755 5760 5770 5771 5769 5771 5778 5777 5776 5776 5775 5777 5777 5775
5702 5694 5686 5677 5669 5660 5652 5645 5639 5637 5644 5644 5642 5648 5651 5650 5659 5665 5669 5673 5677 5683 5685 5686 5697 5727 5727 5734 5739 5739 5740 5745 5756 5761 5765 5763 5762 5766 5769 5768 5767 5768 5767 5766 5765
5688 5678 5667 5657 5646 5635 5625 5618 5612 5609 5614 5619 5615 5623 5626 5628 5639 5645 5646 5652 5659 5664 5666 5667 5703 5704 5714 5719 5718 5728 5734 5743 5747 5753 5753 5754 5751 5758 5762 5760 5760 5760 5758 5759 5759
5677 5667 5654 5637 5624 5612 5603 5599 5594 5592 5594 5593 5590 5595 5603 5606 5617 5621 5625 5632 5638 5645 5648 5657 5684 5688 5692 5701 5711 5718 5730 5735 5738 5742 5740 5749 5740 5750 5753 5752 5752 5750 5753 5751 5749
5666 5653 5637 5621 5613 5604 5596 5591 5586 5583 5590 5589 5585 5587 5589 5595 5599 5601 5605 5610 5619 5626 5628 5664 5667 5665 5673 5696 5698 5713 5722 5724 5730 5730 5732 5737 5739 5744 5746 5746 5745 5746 5747 5745 5742
5656 5640 5627 5618 5609 5598 5587 5585 5583 5582 5583 5584 5582 5582 5583 5584 5588 5594 5595 5598 5602 5606 5615 5644 5645 5643 5668 5677 5681 5700 5709 5714 5720 5723 5720 5733 5733 5734 5742 5738 5741 5741 5739 5737 5736
5647 5635 5625 5616 5606 5591 5585 5584 5584 5583 5582 5581 5576 5576 5577 5579 5582 5587 5589 5593 5594 5596 5603 5621 5619 5633 5648 5660 5672 5683 5694 5702 5708 5709 5714 5731 5724 5728 5735 5734 5734 5735 5733 5731 5729
5644 5635 5625 5618 5607 5594 5590 5587 5584 5583 5581 5580 5577 5575 5575 5578 5578 5581 5584 5585 5590 5592 5592 5597 5604 5624 5642 5650 5661 5669 5680 5688 5696 5705 5714 5721 5718 5726 5726 5727 5729 5729 5727 5726 5725
5643 5635 5626 5613 5606 5599 5594 5590 5584 5582 5578 5577 5576 5571 5571 5574 5573 5573 5577 5578 5582 5581 5584 5584 5593 5611 5621 5635 5643 5658 5664 5688 5694 5702 5707 5714 5715 5718 5720 5723 5723 5723 5724 5723 5723
5644 5632 5624 5614 5605 5599 5594 5589 5585 5581 5574 5572 5571 5568 5567 5565 5565 5566 5568 5569 5572 5574 5574 5581 5583 5592 5604 5619 5631 5641 5663 5673 5678 5690 5699 5709 5716 5722 5715 5719 5720 5720 5721 5722 5722
5641 5632 5623 5613 5604 5597 5591 5586 5581 5576 5572 5569 5567 5564 5564 5562 5561 5561 5565 5565 5566 5567 5569 5571 5572 5587 5594 5596 5620 5631 5641 5657 5677 5684 5692 5703 5712 5719 5715 5713 5718 5716 5718 5719 5720
5638 5629 5620 5610 5604 5597 5590 5583 5578 5573 5569 5566 5564 5562 5561 5560 5560 5561 5563 5557 5559 5559 5561 5561 5566 5574 5582 5597 5614 5624 5638 5649 5659 5674 5685 5699 5708 5709 5710 5712 5713 5714 5715 5717 5718
5637 5627 5621 5613 5604 5596 5588 5581 5575 5570 5566 5563 5561 5559 5559 5558 5558 5558 5552 5551 5555 5555 5555 5557 5564 5570 5577 5587 5597 5610 5625 5640 5655 5674 5681 5692 5700 5702 5707 5709 5710 5708 5711 5715 5716
5635 5626 5614 5605 5599 5593 5586 5579 5574 5567 5562 5559 5557 5557 5557 5556 5555 5554 5553 5551 5552 5552 5551 5554 5560 5566 5573 5586 5592 5606 5622 5635 5651 5663 5674 5687 5700 5696 5702 5705 5706 5705 5710 5713 5715
5635 5626 5617 5609 5601 5593 5584 5578 5572 5567 5561 5558 5556 5555 5553 5551 5551 5548 5546 5547 5550 5549 5550 5553 5558 5558 5561 5569 5585 5595 5606 5631 5642 5658 5669 5683 5691 5694 5696 5699 5698 5705 5708 5711 5712
5634 5626 5617 5608 5600 5593 5584 5577 5571 5566 5560 5557 5554 5552 5550 5548 5546 5544 5543 5544 5546 5547 5549 5550 5552 5550 5555 5563 5577 5589 5600 5618 5640 5657 5671 5680 5688 5691 5686 5691 5698 5703 5705 5708 5710
5633 5625 5616 5608 5599 5591 5584 5577 5570 5565 5560 5555 5552 5550 5546 5543 5540 5539 5539 5541 5544 5545 5546 5549 5550 5550 5556 5562 5573 5582 5599 5615 5636 5654 5668 5676 5687 5676 5684 5685 5692 5697 5701 5705 5708
Wind_Speed
27 29 31 32 35 38 41 43 44 45 49 51 51 65 61 57 54 54 52 50 54 53 54 52 56 54 54 55 46 47 53 55 45 37 37 32 30 26 21 23 28 38 41 41 48
27 28 30 31 31 31 35 43 45 47 47 48 48 50 60 65 67 65 58 58 58 57 59 51 52 52 54 53 52 51 53 50 45 39 42 42 37 26 31 30 26 26 28 31 39
28 29 31 32 34 35 36 34 37 45 49 50 50 50 51 54 59 67 65 67 67 62 56 59 54 52 54 54 55 55 55 51 47 45 44 47 49 35 32 36 33 41 36 40 51
31 32 34 35 35 36 37 39 40 41 42 43 45 47 49 49 52 56 58 60 71 67 62 63 65 62 61 57 54 59 60 56 52 50 50 50 49 45 40 38 41 44 43 42 52
36 37 38 40 41 42 42 43 43 44 45 46 47 48 49 49 47 53 53 54 57 70 75 67 65 63 67 63 62 65 63 58 55 54 51 51 55 59 59 55 53 54 53 57 58
35 36 37 38 40 42 44 45 47 48 49 50 50 49 50 50 52 54 56 53 52 53 58 70 75 70 69 68 67 61 63 63 62 64 61 54 57 58 55 53 54 53 58 53 54
37 39 41 42 43 44 45 47 49 50 51 52 53 55 54 49 53 54 57 55 56 55 57 58 64 73 72 73 70 71 72 73 65 64 66 58 64 60 55 57 55 49 50 50 50
38 40 42 44 46 48 51 52 53 52 53 54 55 56 55 57 58 57 57 56 56 58 57 57 58 62 70 73 70 68 69 70 61 59 49 50 58 47 41 44 48 46 47 47 44
38 40 43 46 48 51 53 56 58 59 60 60 60 58 57 56 58 59 62 60 60 59 57 60 63 61 62 65 66 67 68 59 47 44 50 47 48 36 38 37 42 42 43 40 40
44 47 49 52 53 54 57 60 62 62 63 63 65 63 63 62 61 61 62 63 63 64 63 62 65 67 65 64 64 56 51 41 49 43 46 41 44 32 40 39 36 37 39 36 43
46 49 52 55 58 62 64 66 67 66 65 66 68 65 66 67 66 65 64 63 66 67 68 69 71 64 51 58 52 53 50 54 53 46 46 41 43 36 40 39 38 43 38 36 40
50 52 53 56 62 66 70 74 76 74 71 69 71 68 68 66 69 69 68 67 67 66 67 75 71 48 59 54 55 59 60 57 49 48 45 36 41 42 39 38 40 38 38 36 38
54 57 62 68 74 76 74 71 66 69 75 69 67 72 64 67 65 65 67 69 69 68 68 70 55 60 59 59 62 57 56 51 48 46 44 35 44 39 35 39 40 39 41 36 38
59 63 67 68 64 50 44 43 44 44 50 44 46 48 46 52 60 61 63 63 66 66 66 67 59 62 64 63 62 59 52 51 48 47 52 39 49 34 33 35 36 38 33 33 32
60 61 60 50 40 40 39 36 35 31 10 8 9 9 12 24 32 41 50 56 61 64 62 60 61 63 68 57 61 53 46 48 45 46 43 47 45 19 31 32 36 35 27 28 28
56 55 46 42 42 42 29 18 12 8 4 9 15 14 8 9 12 17 32 30 43 54 61 63 60 65 62 62 64 56 52 47 44 40 43 34 39 24 25 34 29 26 27 33 29
54 47 41 43 42 36 17 7 10 13 11 16 20 18 15 7 8 14 14 15 27 28 47 62 65 67 62 64 64 63 57 51 48 48 44 25 38 29 26 29 25 21 26 29 27
47 43 39 38 39 35 17 15 11 15 15 14 27 28 24 19 15 21 18 23 21 23 33 44 58 64 66 65 62 64 64 62 59 53 46 39 41 31 29 23 17 22 23 19 23
42 37 38 40 37 33 22 16 18 22 23 18 11 2 7 12 17 29 23 24 20 30 34 37 40 55 61 65 57 51 60 56 51 40 41 33 28 28 26 12 15 18 12 13 9
37 36 37 37 35 30 28 22 17 20 24 22 14 14 6 13 14 16 20 27 28 35 29 40 38 51 62 58 67 50 48 57 52 46 37 32 19 13 24 18 17 14 16 13 12
39 37 35 35 35 32 29 26 18 19 19 17 12 19 12 13 16 20 18 16 25 30 33 41 43 34 53 59 60 61 54 57 49 48 46 31 15 18 27 26 20 20 15 13 16
40 39 36 37 33 33 30 27 24 21 14 14 12 9 9 13 11 14 14 12 17 19 23 36 38 37 44 42 44 55 58 58 60 53 44 31 22 27 24 17 20 22 21 17 16
39 40 37 36 31 30 28 26 26 19 15 14 10 13 12 3 8 9 15 15 11 15 14 31 34 31 36 46 51 54 55 56 56 41 43 33 24 27 26 21 22 21 25 17 14
40 41 41 41 39 38 30 26 27 24 20 12 10 5 8 13 5 12 16 18 15 13 16 26 35 35 31 38 47 41 44 50 39 50 38 31 21 27 23 26 24 29 21 18 17
40 41 42 40 36 33 35 31 26 24 20 14 8 11 13 15 9 16 18 14 11 3 8 18 29 42 44 35 50 44 48 46 46 45 43 33 30 13 24 25 32 22 23 22 14
39 40 40 40 36 30 31 28 26 23 23 12 9 10 12 16 17 19 17 15 11 9 11 11 20 37 43 37 51 51 55 52 42 38 37 30 34 23 29 30 20 25 23 19 19
36 39 41 41 37 32 31 27 25 24 20 13 10 12 16 17 18 18 18 16 11 6 11 14 17 24 39 25 26 54 58 52 46 36 40 28 35 33 23 21 25 27 25 23 21
Wind_Direction
267 266 266 263 257 253 257 254 249 246 246 247 248 240 240 236 236 240 240 243 242 243 247 247 251 252 253 244 259 256 261 259 260 266 249 233 245 259 256 255 257 259 269 284 286
267 267 268 271 271 266 259 251 250 253 253 253 253 248 241 245 242 242 244 241 244 243 244 246 246 248 253 253 256 260 261 265 264 256 249 246 243 262 265 268 276 281 278 290 290
267 266 266 266 266 267 265 259 255 251 250 249 249 248 246 245 245 245 246 243 240 243 243 246 245 248 251 250 254 257 266 269 262 260 255 258 258 254 256 261 271 269 276 279 282
270 269 268 267 266 264 262 263 262 257 254 253 251 250 249 247 248 247 247 245 240 239 243 246 251 248 250 250 252 253 266 262 262 264 262 263 264 252 249 259 269 284 274 276 279
270 269 269 269 268 267 265 263 261 260 258 254 252 251 249 248 248 254 248 245 243 242 243 246 249 250 254 253 251 260 261 259 262 262 269 262 258 263 261 263 265 267 272 271 275
279 277 274 273 271 270 269 268 266 263 261 260 258 253 249 249 248 245 251 247 244 245 244 242 243 249 253 253 257 262 259 258 259 259 269 267 267 270 268 273 277 277 279 280 271
283 282 280 279 276 274 271 268 267 266 264 261 259 257 256 253 250 247 249 247 247 243 243 244 244 243 247 249 256 259 261 263 260 261 262 270 273 271 277 285 280 278 278 276 279
291 289 287 284 281 279 277 274 271 267 264 261 259 257 256 254 251 250 248 247 246 245 243 243 245 247 246 249 251 253 256 259 256 263 275 270 272 275 279 278 282 280 277 281 281
294 290 287 285 283 281 278 275 272 269 267 265 263 258 256 253 252 250 249 247 245 245 242 241 242 243 243 245 248 249 255 263 270 267 268 262 267 280 283 283 283 286 274 275 277
296 294 291 287 283 279 278 275 271 268 266 264 263 262 258 255 252 251 250 248 246 246 243 241 241 241 241 244 247 253 260 266 265 268 269 272 274 280 283 280 282 285 283 286 277
301 298 296 292 291 288 284 280 276 270 266 262 259 256 259 255 254 253 250 249 247 246 246 241 238 240 248 249 254 257 259 259 261 268 271 268 273 275 277 270 278 274 286 281 273
308 306 302 298 294 290 286 282 280 274 270 268 264 260 257 253 252 250 249 248 247 246 244 240 243 248 242 244 246 247 250 255 260 262 264 259 267 274 281 282 281 280 288 283 273
315 313 309 303 300 295 291 288 285 280 273 269 267 262 262 258 254 250 248 245 244 243 243 242 245 239 239 239 240 242 246 250 253 255 255 258 264 270 277 278 278 283 280 285 288
318 317 315 311 309 309 304 298 292 287 286 288 286 276 265 261 258 252 249 246 242 241 240 241 238 237 233 234 238 240 244 248 251 253 255 255 267 270 275 278 283 283 298 298 294
326 328 328 327 327 320 311 311 316 311 303 256 290 236 251 262 250 255 249 246 244 241 237 239 237 234 232 236 234 236 236 242 245 252 258 253 261 271 269 276 281 294 298 295 288
342 348 345 347 343 335 320 335 16 50 19 228 254 256 269 207 224 228 249 249 243 241 239 231 231 230 231 229 228 228 230 232 236 243 251 249 258 264 275 274 288 294 298 288 283
2 359 351 351 350 351 355 6 25 5 342 332 313 302 259 197 240 227 261 251 250 246 240 230 225 227 224 223 225 225 223 225 229 231 246 248 255 273 268 283 287 293 297 285 268
8 7 356 352 1 7 352 333 5 7 332 323 300 277 262 252 245 226 233 258 247 246 225 236 228 221 225 224 224 222 224 225 228 238 248 247 255 280 287 299 284 290 286 267 261
6 5 357 359 5 8 8 342 326 347 319 318 291 17 212 247 271 249 241 252 230 236 227 221 225 220 217 219 209 214 209 225 225 234 244 246 275 291 301 296 278 287 251 246 248
6 3 357 1 360 3 0 348 335 311 318 309 275 289 249 250 293 245 217 240 236 235 244 225 223 216 211 215 216 199 216 211 217 216 229 234 260 270 266 286 286 276 236 240 238
357 358 357 357 358 355 356 356 334 313 325 320 279 303 274 253 250 249 257 264 247 253 246 224 225 206 209 202 212 202 200 210 214 218 217 219 211 243 262 267 288 243 233 244 236
352 350 355 352 352 353 352 352 351 326 320 306 291 289 300 281 246 241 273 263 238 262 263 225 218 203 206 198 209 204 207 202 204 210 213 216 216 243 248 274 273 243 231 234 232
353 348 354 353 356 347 350 352 355 346 332 328 299 260 296 306 335 246 270 286 278 280 272 225 210 199 206 196 191 206 204 199 202 200 215 195 204 245 242 250 258 225 242 234 227
352 355 353 351 350 356 355 350 353 353 345 317 317 268 258 310 293 290 294 262 272 286 252 226 213 209 199 190 189 191 213 183 194 201 191 192 219 236 241 239 222 224 229 234 223
353 353 352 350 350 355 357 355 351 350 344 341 325 277 278 281 279 249 263 249 252 219 244 224 209 219 210 186 189 189 181 189 188 200 183 170 222 198 222 224 219 220 228 232 222
348 352 353 354 351 354 353 355 352 358 349 343 331 328 293 279 260 248 245 222 212 178 211 245 221 224 223 185 185 197 179 183 183 198 174 169 219 192 202 233 238 219 223 218 224
343 349 353 355 355 353 358 354 356 356 0 353 337 331 319 306 287 269 231 209 198 210 238 244 271 231 210 205 184 183 176 174 179 185 168 188 197 224 214 192 208 208 214 220 225